Location: Cosy Dell
(34.2789°N, 117.4537°W)
Time: 20:54:07
(UTC+00:00)

IDEFIX/ARIANE 42P - Pass Details

Date: 14 July 2020
Orbit: 784 x 804 km, 98.4° (Epoch: 13 August)

Event Time Altitude Azimuth Distance (km) Brightness Sun altitude
Rises 10:20:35 0° 23° (NNE) 3,282 7.0 -24.4°
Reaches altitude 10° 10:23:06 10° 32° (NNE) 2,348 6.1 -24.1°
Maximum altitude 10:27:50 35° 98° (E) 1,238 3.8 -23.5°
Enters shadow 10:30:35 21° 149° (SSE) 1,696 4.1 -23.1°
